WXM80 ListenWXM80 Stop

You find our weather info also at:

UK Metoffice

WeatherCloud

Weather Underground

Northeastern Weather Network

AWEKAS

Citizen Weather Observer Program (CWOP)

HAMweather, WeatherForYou, PWS Weather


Weather Underground History page Text

Daily Summary for February 2, 2017 Units:  Metric    English   Both
« Previous Day
Next Day »
Daily Weekly Monthly Yearly Custom
  High: Low: Average:
Temperature: 6.9 °C -0.4 °C 2.8 °C
Dew Point: -0.3 °C -7.2 °C -3.6 °C
Humidity: 81 % 41 % 64 %
Wind Speed: 16.4 km/h 0 km/h 5.6 km/h
Wind Gust: 27.8 km/h - -
Wind:- - West
Pressure: 1021.2 hPa 1015.1 hPa -
Precipitation: 0 mm    
Historical Graphs
 
 
Tabular Data for February 2, 2017
Time Temperature Dew Point Pressure Wind Wind Speed Wind Gust Humidity Rainfall Rate (Hourly)
00:01 3.2 °C -0.3 °C 1015.8 hPa WSW 3.2 km/h 3.7 km/h 78 % 0 mm
00:06 3.1 °C -0.4 °C 1015.8 hPa West 3.7 km/h 13 km/h 78 % 0 mm
00:11 3 °C -0.4 °C 1015.8 hPa WNW 3.1 km/h 9.3 km/h 78 % 0 mm
00:16 2.9 °C -0.5 °C 1015.8 hPa WSW 6 km/h 9.3 km/h 78 % 0 mm
00:21 2.8 °C -0.4 °C 1015.8 hPa West 4.7 km/h 8 km/h 79 % 0 mm
00:26 2.8 °C -0.5 °C 1015.8 hPa West 3.7 km/h 5.6 km/h 79 % 0 mm
00:31 2.7 °C -0.6 °C 1015.8 hPa West 6.3 km/h 13 km/h 79 % 0 mm
00:36 2.7 °C -0.6 °C 1016.1 hPa WNW 5.5 km/h 11.1 km/h 79 % 0 mm
00:41 2.6 °C -0.7 °C 1016.1 hPa SW 9.8 km/h 11.1 km/h 79 % 0 mm
00:46 2.6 °C -0.8 °C 1016.1 hPa West 3.4 km/h 8 km/h 78 % 0 mm
00:51 2.6 °C -0.7 °C 1016.1 hPa West 0.6 km/h 1.9 km/h 79 % 0 mm
00:56 2.6 °C -0.7 °C 1015.8 hPa West 1.4 km/h 5.6 km/h 79 % 0 mm
01:01 2.6 °C -0.7 °C 1015.8 hPa WNW 2.6 km/h 5.6 km/h 79 % 0 mm
01:06 2.5 °C -0.8 °C 1015.8 hPa West 5.5 km/h 5.6 km/h 79 % 0 mm
01:11 2.4 °C -0.8 °C 1015.8 hPa WNW 4.7 km/h 9.3 km/h 79 % 0 mm
01:17 2.4 °C -1.1 °C 1015.8 hPa West 2.9 km/h 7.4 km/h 78 % 0 mm
01:22 2.3 °C -1.1 °C 1015.8 hPa WNW 3.9 km/h 9.3 km/h 78 % 0 mm
01:27 2.3 °C -1.2 °C 1015.8 hPa West 4.7 km/h 11.1 km/h 78 % 0 mm
01:32 2.2 °C -1.2 °C 1015.8 hPa WNW 4 km/h 7.4 km/h 78 % 0 mm
01:33 2.2 °C -1.2 °C 1015.8 hPa WNW 1.6 km/h 8 km/h 78 % 0 mm
01:38 2.2 °C -1.3 °C 1015.8 hPa WNW 3.2 km/h 11.3 km/h 78 % 0 mm
01:43 2.2 °C -1.3 °C 1015.8 hPa WNW 4.8 km/h 11.3 km/h 78 % 0 mm
01:48 2.1 °C -1.3 °C 1015.8 hPa WNW 1.6 km/h 6.4 km/h 78 % 0 mm
01:53 2.1 °C -1.3 °C 1016.1 hPa WNW 1.6 km/h 11.3 km/h 78 % 0 mm
01:59 2.1 °C -1.4 °C 1016.1 hPa WSW 2.6 km/h 7.4 km/h 78 % 0 mm
02:04 2 °C -1.4 °C 1016.1 hPa WSW 1.3 km/h 5.6 km/h 78 % 0 mm
02:09 1.9 °C -1.7 °C 1015.8 hPa WSW 2.4 km/h 5.6 km/h 77 % 0 mm
02:14 1.9 °C -1.7 °C 1016.1 hPa WSW 4 km/h 5.6 km/h 77 % 0 mm
02:19 1.8 °C -1.9 °C 1016.1 hPa WSW 2.9 km/h 5.6 km/h 76 % 0 mm
02:24 1.8 °C -2.2 °C 1016.1 hPa WNW 1.4 km/h 5.6 km/h 75 % 0 mm
02:29 1.8 °C -2.2 °C 1016.1 hPa West 1.3 km/h 5.6 km/h 75 % 0 mm
02:34 1.7 °C -2.2 °C 1016.5 hPa West 3.5 km/h 5.6 km/h 75 % 0 mm
02:39 1.7 °C -2.2 °C 1016.5 hPa WNW 3.2 km/h 8 km/h 75 % 0 mm
02:44 1.8 °C -2.2 °C 1016.5 hPa WSW 3.7 km/h 7.4 km/h 75 % 0 mm
02:49 1.8 °C -2.2 °C 1016.5 hPa WSW 2.4 km/h 6.4 km/h 75 % 0 mm
02:54 1.8 °C -2.4 °C 1016.5 hPa WSW 3.7 km/h 5.6 km/h 74 % 0 mm
02:59 1.8 °C -2.4 °C 1016.5 hPa WSW 0.6 km/h 3.7 km/h 74 % 0 mm
03:04 1.8 °C -2.2 °C 1016.5 hPa Calm   1.9 km/h 75 % 0 mm
03:09 1.8 °C -2.2 °C 1016.5 hPa WSW 3.4 km/h 3.7 km/h 75 % 0 mm
03:14 1.7 °C -2.2 °C 1016.5 hPa WSW 0.2 km/h 1.9 km/h 75 % 0 mm
03:19 1.7 °C -2.3 °C 1016.8 hPa WSW 0.3 km/h 1.9 km/h 75 % 0 mm
03:24 1.6 °C -2.3 °C 1016.8 hPa WSW 2.4 km/h 3.7 km/h 75 % 0 mm
03:29 1.5 °C -2.4 °C 1016.8 hPa WSW 1 km/h 3.2 km/h 75 % 0 mm
03:34 1.4 °C -2.6 °C 1016.8 hPa WSW 0.2 km/h 3.7 km/h 75 % 0 mm
03:39 1.3 °C -2.7 °C 1016.8 hPa WSW 1.4 km/h 3.7 km/h 75 % 0 mm
03:44 1.2 °C -2.8 °C 1016.8 hPa WSW 1.6 km/h 3.7 km/h 75 % 0 mm
03:49 1.1 °C -2.8 °C 1016.5 hPa Calm     75 % 0 mm
03:54 0.9 °C -3 °C 1016.5 hPa WSW 0.8 km/h 1.9 km/h 75 % 0 mm
03:59 0.8 °C -3.1 °C 1016.5 hPa Calm     75 % 0 mm
04:05 0.7 °C -3.1 °C 1016.5 hPa WSW 1.4 km/h 3.7 km/h 76 % 0 mm
04:10 0.6 °C -2.9 °C 1016.5 hPa Calm     77 % 0 mm
04:15 0.4 °C -3.1 °C 1016.5 hPa WSW 1.4 km/h 3.7 km/h 77 % 0 mm
04:20 0.3 °C -3.2 °C 1016.8 hPa WSW 0.5 km/h 3.7 km/h 77 % 0 mm
04:25 0.2 °C -3.3 °C 1016.8 hPa Calm   1.9 km/h 77 % 0 mm
04:30 0.1 °C -3.3 °C 1016.8 hPa Calm     78 % 0 mm
04:35 0.1 °C -3.3 °C 1016.8 hPa Calm     78 % 0 mm
04:40 -0.1 °C -3.4 °C 1016.8 hPa Calm     78 % 0 mm
04:45 -0.2 °C -3.6 °C 1016.5 hPa Calm     78 % 0 mm
04:50 -0.2 °C -3.6 °C 1016.5 hPa Calm     78 % 0 mm
04:55 -0.3 °C -3.5 °C 1016.5 hPa Calm     79 % 0 mm
05:00 -0.3 °C -3.6 °C 1016.5 hPa Calm     79 % 0 mm
05:05 -0.4 °C -3.6 °C 1016.5 hPa Calm     79 % 0 mm
05:10 -0.4 °C -3.4 °C 1016.5 hPa Calm   1.6 km/h 80 % 0 mm
05:15 -0.4 °C -3.4 °C 1016.5 hPa Calm     80 % 0 mm
05:20 -0.4 °C -3.4 °C 1016.5 hPa Calm     80 % 0 mm
05:25 -0.3 °C -3.2 °C 1016.1 hPa Calm   1.6 km/h 81 % 0 mm
05:30 -0.3 °C -3.2 °C 1015.8 hPa Calm     81 % 0 mm
05:35 -0.3 °C -3.2 °C 1015.8 hPa Calm     81 % 0 mm
05:40 -0.3 °C -3.2 °C 1016.1 hPa WSW 0.5 km/h 1.9 km/h 81 % 0 mm
05:45 -0.3 °C -3.2 °C 1016.5 hPa WSW 3.1 km/h 5.6 km/h 81 % 0 mm
05:50 -0.4 °C -3.3 °C 1016.5 hPa SW 2.4 km/h 3.2 km/h 81 % 0 mm
05:55 -0.4 °C -3.4 °C 1016.5 hPa SSW 3.7 km/h 5.6 km/h 80 % 0 mm
06:00 -0.4 °C -3.4 °C 1016.5 hPa SSW 6.4 km/h 6.4 km/h 80 % 0 mm
06:05 -0.4 °C -3.4 °C 1016.5 hPa SSW 3.9 km/h 5.6 km/h 80 % 0 mm
06:10 -0.3 °C -3.6 °C 1016.1 hPa SW 1.4 km/h 1.9 km/h 79 % 0 mm
06:16 -0.3 °C -3.6 °C 1016.1 hPa SW 0.3 km/h 3.7 km/h 79 % 0 mm
06:21 -0.3 °C -3.6 °C 1016.5 hPa SSW 0.6 km/h 3.7 km/h 79 % 0 mm
06:26 -0.3 °C -3.7 °C 1016.5 hPa SW 3.5 km/h 5.6 km/h 78 % 0 mm
06:31 -0.4 °C -3.8 °C 1016.5 hPa SW 1.9 km/h 6.4 km/h 78 % 0 mm
06:36 -0.4 °C -3.8 °C 1016.5 hPa SW 0.2 km/h 1.9 km/h 78 % 0 mm
06:41 -0.4 °C -3.8 °C 1016.5 hPa SW 1 km/h 3.7 km/h 78 % 0 mm
06:46 -0.4 °C -3.8 °C 1016.8 hPa Calm   1.9 km/h 78 % 0 mm
06:51 -0.4 °C -3.8 °C 1016.8 hPa SW 2.3 km/h 5.6 km/h 78 % 0 mm
06:56 -0.4 °C -3.8 °C 1016.5 hPa SW 1.1 km/h 3.7 km/h 78 % 0 mm
07:01 -0.4 °C -3.8 °C 1016.5 hPa SW 1 km/h 3.2 km/h 78 % 0 mm
07:06 -0.3 °C -3.7 °C 1016.5 hPa Calm     78 % 0 mm
07:11 -0.2 °C -3.8 °C 1016.5 hPa SW 0.5 km/h 5.6 km/h 77 % 0 mm
07:16 -0.2 °C -3.7 °C 1016.8 hPa SW 0.2 km/h 1.9 km/h 77 % 0 mm
07:21 -0.1 °C -3.6 °C 1016.8 hPa SW 0.2 km/h 3.7 km/h 77 % 0 mm
07:26 0.1 °C -3.5 °C 1016.8 hPa SW 1.6 km/h 1.9 km/h 77 % 0 mm
07:31 0.2 °C -3.4 °C 1016.8 hPa SW 2.1 km/h 6.4 km/h 77 % 0 mm
07:36 0.3 °C -3.3 °C 1017.2 hPa SW 0.3 km/h 5.6 km/h 77 % 0 mm
07:41 0.4 °C -3.1 °C 1016.8 hPa SW 3.5 km/h 7.4 km/h 77 % 0 mm
07:46 0.6 °C -3 °C 1017.2 hPa WSW 2.3 km/h 5.6 km/h 77 % 0 mm
07:51 0.7 °C -3.1 °C 1016.8 hPa WSW 4 km/h 5.6 km/h 76 % 0 mm
07:56 0.9 °C -2.9 °C 1016.8 hPa WSW 1.9 km/h 9.3 km/h 76 % 0 mm
08:01 1 °C -2.8 °C 1016.8 hPa WSW 0.6 km/h 3.7 km/h 76 % 0 mm
08:06 1.1 °C -2.7 °C 1017.2 hPa SW 2.1 km/h 3.7 km/h 76 % 0 mm
08:11 1.2 °C -2.6 °C 1017.2 hPa SW 1.3 km/h 5.6 km/h 76 % 0 mm
08:17 1.3 °C -2.6 °C 1017.2 hPa SW 1.6 km/h 3.7 km/h 75 % 0 mm
08:22 1.4 °C -2.6 °C 1017.2 hPa SW 1.6 km/h 5.6 km/h 75 % 0 mm
08:27 1.5 °C -2.4 °C 1017.2 hPa SW 2.9 km/h 5.6 km/h 75 % 0 mm
08:32 1.6 °C -2.4 °C 1016.8 hPa SW 1 km/h 1.9 km/h 75 % 0 mm
08:37 1.6 °C -2.3 °C 1016.8 hPa SSW 1.1 km/h 3.7 km/h 75 % 0 mm
08:42 1.8 °C -2.2 °C 1016.8 hPa SSW 5.6 km/h 8 km/h 75 % 0 mm
08:47 1.9 °C -2 °C 1016.8 hPa SW 6 km/h 11.3 km/h 75 % 0 mm
08:52 2.1 °C -1.9 °C 1016.8 hPa SW 9.3 km/h 14.8 km/h 75 % 0 mm
08:57 2.3 °C -1.7 °C 1016.8 hPa SW 5.5 km/h 9.3 km/h 75 % 0 mm
09:02 2.5 °C -1.5 °C 1017.2 hPa SW 5.3 km/h 9.3 km/h 75 % 0 mm
09:07 2.7 °C -1.3 °C 1017.2 hPa SW 5.6 km/h 11.3 km/h 75 % 0 mm
09:12 2.8 °C -1.3 °C 1017.2 hPa South 7.4 km/h 11.3 km/h 74 % 0 mm
09:17 3 °C -1.4 °C 1017.2 hPa SW 7.1 km/h 12.9 km/h 73 % 0 mm
09:22 3.2 °C -1.2 °C 1017.2 hPa WSW 3.7 km/h 7.4 km/h 73 % 0 mm
09:27 3.3 °C -1.3 °C 1017.2 hPa South 10.5 km/h 18.5 km/h 72 % 0 mm
09:32 3.5 °C -1.3 °C 1017.2 hPa South 9 km/h 25.9 km/h 71 % 0 mm
09:37 3.7 °C -1.3 °C 1017.2 hPa West 11.4 km/h 18.5 km/h 70 % 0 mm
09:42 3.8 °C -1.4 °C 1017.2 hPa SW 7.4 km/h 13 km/h 69 % 0 mm
09:47 3.8 °C -1.3 °C 1017.2 hPa WSW 9 km/h 11.1 km/h 69 % 0 mm
09:52 3.9 °C -1.5 °C 1017.5 hPa SW 7.9 km/h 14.8 km/h 68 % 0 mm
09:57 3.9 °C -1.6 °C 1017.2 hPa WSW 11.7 km/h 14.8 km/h 67 % 0 mm
10:02 4 °C -1.8 °C 1017.2 hPa WSW 12.2 km/h 16.7 km/h 66 % 0 mm
10:07 4.1 °C -1.7 °C 1017.2 hPa NW 7.7 km/h 20.4 km/h 66 % 0 mm
10:13 4 °C -1.8 °C 1017.5 hPa WSW 6.6 km/h 13 km/h 66 % 0 mm
10:18 4.1 °C -1.9 °C 1017.5 hPa WNW 10.8 km/h 18.5 km/h 65 % 0 mm
10:23 4.2 °C -1.6 °C 1017.2 hPa WNW 6.9 km/h 18.5 km/h 66 % 0 mm
10:28 4.4 °C -1.6 °C 1017.2 hPa West 11.1 km/h 18.5 km/h 65 % 0 mm
10:33 4.6 °C -1.6 °C 1017.2 hPa WSW 9 km/h 16.7 km/h 64 % 0 mm
10:38 4.8 °C -1.4 °C 1017.2 hPa WNW 8 km/h 16.1 km/h 64 % 0 mm
10:43 4.9 °C -1.8 °C 1017.2 hPa NW 6.9 km/h 12.9 km/h 62 % 0 mm
10:48 5.1 °C -1.8 °C 1017.2 hPa West 9.5 km/h 14.8 km/h 61 % 0 mm
10:53 5.3 °C -1.8 °C 1016.8 hPa West 12.9 km/h 22.2 km/h 60 % 0 mm
10:58 5.5 °C -1.9 °C 1016.8 hPa WSW 10.8 km/h 14.8 km/h 59 % 0 mm
11:03 5.6 °C -2.1 °C 1016.8 hPa WSW 9.3 km/h 14.5 km/h 58 % 0 mm
11:08 5.6 °C -2.3 °C 1016.8 hPa WNW 9.3 km/h 16.1 km/h 57 % 0 mm
11:13 5.6 °C -2.7 °C 1016.8 hPa SW 10 km/h 18.5 km/h 55 % 0 mm
11:18 5.7 °C -2.9 °C 1016.8 hPa WNW 9.8 km/h 17.7 km/h 54 % 0 mm
11:23 5.6 °C -3 °C 1016.8 hPa West 10.6 km/h 14.8 km/h 54 % 0 mm
11:28 5.6 °C -3 °C 1016.5 hPa WNW 10 km/h 16.7 km/h 54 % 0 mm
11:33 5.6 °C -3.2 °C 1016.5 hPa WNW 8 km/h 16.1 km/h 53 % 0 mm
11:38 5.6 °C -3.2 °C 1016.5 hPa West 3.2 km/h 16.1 km/h 53 % 0 mm
11:43 5.6 °C -2.7 °C 1016.1 hPa West 4.8 km/h 9.7 km/h 55 % 0 mm
11:48 5.7 °C -2.4 °C 1016.1 hPa WSW 8 km/h 14.5 km/h 56 % 0 mm
11:53 5.7 °C -2.6 °C 1015.8 hPa SSW 11.6 km/h 16.7 km/h 55 % 0 mm
11:58 5.7 °C -2.6 °C 1015.8 hPa WSW 9.2 km/h 14.5 km/h 55 % 0 mm
12:04 5.8 °C -2.8 °C 1015.8 hPa SW 14.2 km/h 18.5 km/h 54 % 0 mm
12:09 5.8 °C -2.6 °C 1015.8 hPa WSW 8 km/h 16.7 km/h 55 % 0 mm
12:14 5.9 °C -2.7 °C 1015.8 hPa WSW 6.1 km/h 11.1 km/h 54 % 0 mm
12:19 6 °C -2.6 °C 1015.8 hPa West 9 km/h 14.8 km/h 54 % 0 mm
12:24 6.1 °C -3 °C 1015.5 hPa WNW 7.6 km/h 18.5 km/h 52 % 0 mm
12:29 6.1 °C -3.3 °C 1015.5 hPa WSW 6.3 km/h 9.3 km/h 51 % 0 mm
12:34 6.1 °C -3.3 °C 1015.5 hPa SW 10.1 km/h 18.5 km/h 51 % 0 mm
12:39 6.1 °C -3.3 °C 1015.5 hPa West 5.6 km/h 9.3 km/h 51 % 0 mm
12:44 6.1 °C -3.3 °C 1015.5 hPa WNW 3.2 km/h 6.4 km/h 51 % 0 mm
12:49 5.9 °C -3.7 °C 1015.5 hPa WSW 4 km/h 6.4 km/h 50 % 0 mm
12:54 5.9 °C -3.2 °C 1015.5 hPa SW 6 km/h 14.5 km/h 52 % 0 mm
12:59 6 °C -3.7 °C 1015.5 hPa WSW 7.7 km/h 11.3 km/h 50 % 0 mm
13:04 6.1 °C -3.6 °C 1015.5 hPa West 7.2 km/h 14.5 km/h 50 % 0 mm
13:09 6.2 °C -4 °C 1015.5 hPa NW 6.6 km/h 14.5 km/h 48 % 0 mm
13:14 6.4 °C -4.7 °C 1015.1 hPa SW 8.4 km/h 20.4 km/h 45 % 0 mm
13:19 6.4 °C -4.4 °C 1015.1 hPa WSW 1.9 km/h 18.5 km/h 46 % 0 mm
13:24 6.3 °C -4.8 °C 1015.1 hPa WSW 10.9 km/h 16.7 km/h 45 % 0 mm
13:29 6.2 °C -4.3 °C 1015.1 hPa WNW 9.2 km/h 14.8 km/h 47 % 0 mm
13:34 6.1 °C -4.1 °C 1015.1 hPa WNW 2.4 km/h 5.6 km/h 48 % 0 mm
13:39 6.1 °C -4.4 °C 1015.1 hPa SW 10.5 km/h 14.8 km/h 47 % 0 mm
13:44 6.1 °C -4.4 °C 1015.1 hPa WSW 6 km/h 11.3 km/h 47 % 0 mm
13:49 6.1 °C -4.7 °C 1015.1 hPa WNW 7.2 km/h 18.5 km/h 46 % 0 mm
13:54 6.1 °C -4.4 °C 1015.1 hPa WSW 7.4 km/h 14.5 km/h 47 % 0 mm
13:59 6.2 °C -4.8 °C 1015.1 hPa WNW 5.6 km/h 13 km/h 45 % 0 mm
14:05 6.4 °C -4.9 °C 1015.1 hPa West 14.8 km/h 18.5 km/h 44 % 0 mm
14:10 6.7 °C -5.3 °C 1015.1 hPa West 12.1 km/h 18.5 km/h 42 % 0 mm
14:15 6.8 °C -4.9 °C 1015.1 hPa West 8.7 km/h 19.3 km/h 43 % 0 mm
14:20 6.9 °C -4.8 °C 1015.1 hPa West 7.7 km/h 16.7 km/h 43 % 0 mm
14:25 6.9 °C -5.1 °C 1015.1 hPa SW 10.5 km/h 20.4 km/h 42 % 0 mm
14:30 6.9 °C -5.4 °C 1015.1 hPa West 8.5 km/h 18.5 km/h 41 % 0 mm
14:35 6.8 °C -5.5 °C 1015.5 hPa WNW 12.1 km/h 24.1 km/h 41 % 0 mm
14:40 6.7 °C -5.3 °C 1015.5 hPa WNW 5.5 km/h 18.5 km/h 42 % 0 mm
14:45 6.6 °C -4.8 °C 1015.5 hPa WNW 6.8 km/h 16.7 km/h 44 % 0 mm
14:50 6.4 °C -4.9 °C 1015.5 hPa West 10.3 km/h 16.7 km/h 44 % 0 mm
14:55 6.4 °C -5 °C 1015.5 hPa NW 10.1 km/h 14.8 km/h 44 % 0 mm
15:00 6.2 °C -5.2 °C 1015.5 hPa West 6.8 km/h 13 km/h 44 % 0 mm
15:05 6.2 °C -5.2 °C 1015.5 hPa WNW 4.7 km/h 9.3 km/h 44 % 0 mm
15:10 6.2 °C -4.6 °C 1015.8 hPa WNW 7.9 km/h 14.8 km/h 46 % 0 mm
15:15 6.2 °C -4.6 °C 1015.8 hPa WNW 10.3 km/h 24.1 km/h 46 % 0 mm
15:20 6.2 °C -4.6 °C 1015.8 hPa NW 8.5 km/h 14.8 km/h 46 % 0 mm
15:25 6.2 °C -4.6 °C 1015.8 hPa WNW 7.7 km/h 14.5 km/h 46 % 0 mm
15:30 6.1 °C -4.7 °C 1016.1 hPa WNW 9.5 km/h 9.5 km/h 46 % 0 mm
15:35 6.1 °C -4.7 °C 1015.8 hPa WSW 5.5 km/h 13 km/h 46 % 0 mm
15:40 5.9 °C -4.8 °C 1016.1 hPa West 10.9 km/h 20.4 km/h 46 % 0 mm
15:45 5.8 °C -4.6 °C 1016.1 hPa NNW 12.1 km/h 19.3 km/h 47 % 0 mm
15:50 5.7 °C -4.5 °C 1016.1 hPa NW 16.4 km/h 18.5 km/h 48 % 0 mm
15:55 5.6 °C -4 °C 1016.5 hPa West 9.8 km/h 20.4 km/h 50 % 0 mm
16:00 5.6 °C -3.3 °C 1016.5 hPa SW 3.5 km/h 8 km/h 53 % 0 mm
16:05 5.6 °C -3.6 °C 1016.5 hPa WNW 7.6 km/h 17.7 km/h 52 % 0 mm
16:11 5.4 °C -3.4 °C 1016.5 hPa WSW 11.9 km/h 18.5 km/h 53 % 0 mm
16:16 5.4 °C -3.4 °C 1016.8 hPa WNW 11.7 km/h 18.5 km/h 53 % 0 mm
16:21 5.3 °C -2.6 °C 1016.8 hPa NNW 11.9 km/h 18.5 km/h 57 % 0 mm
16:26 5.1 °C -2.7 °C 1016.8 hPa NW 14.6 km/h 25.9 km/h 57 % 0 mm
16:31 5 °C -2.6 °C 1016.8 hPa NW 9.3 km/h 18.5 km/h 58 % 0 mm
16:36 4.8 °C -2.7 °C 1016.8 hPa WNW 4.8 km/h 9.3 km/h 58 % 0 mm
16:41 4.7 °C -3.6 °C 1017.2 hPa WNW 10.3 km/h 18.5 km/h 55 % 0 mm
16:46 4.5 °C -4 °C 1017.2 hPa WNW 12.6 km/h 20.4 km/h 54 % 0 mm
16:51 4.3 °C -4.2 °C 1017.2 hPa WNW 11.9 km/h 24.1 km/h 54 % 0 mm
16:53 4.2 °C -4.1 °C 1017.2 hPa WNW 3.9 km/h 11.1 km/h 55 % 0 mm
16:58 4.1 °C -4.4 °C 1017.5 hPa WNW 9.5 km/h 16.1 km/h 54 % 0 mm
17:03 4.1 °C -4.4 °C 1017.5 hPa WNW 5.6 km/h 13 km/h 54 % 0 mm
17:08 4 °C -4.5 °C 1017.5 hPa WNW 4.7 km/h 11.1 km/h 54 % 0 mm
17:13 3.9 °C -4.6 °C 1017.8 hPa West 6.1 km/h 13 km/h 54 % 0 mm
17:18 3.9 °C -4.3 °C 1017.8 hPa WNW 4.3 km/h 11.1 km/h 55 % 0 mm
17:23 3.8 °C -4.2 °C 1017.8 hPa NNW 8.2 km/h 14.8 km/h 56 % 0 mm
17:28 3.7 °C -4.5 °C 1017.8 hPa NW 7.1 km/h 18.5 km/h 55 % 0 mm
17:33 3.7 °C -4.3 °C 1017.8 hPa WNW 8 km/h 11.3 km/h 56 % 0 mm
17:38 3.7 °C -4.1 °C 1017.8 hPa West 4.8 km/h 12.9 km/h 57 % 0 mm
17:43 3.6 °C -4.4 °C 1017.8 hPa West 6.8 km/h 16.7 km/h 56 % 0 mm
17:48 3.6 °C -4.4 °C 1017.8 hPa WNW 10 km/h 17.7 km/h 56 % 0 mm
17:53 3.6 °C -4.7 °C 1017.8 hPa West 10.3 km/h 16.7 km/h 55 % 0 mm
17:58 3.5 °C -4.7 °C 1017.8 hPa NW 5.3 km/h 9.3 km/h 55 % 0 mm
18:03 3.5 °C -4.7 °C 1017.8 hPa WSW 6.1 km/h 13 km/h 55 % 0 mm
18:08 3.5 °C -4.7 °C 1018.2 hPa NW 9.7 km/h 18.5 km/h 55 % 0 mm
18:13 3.5 °C -4.7 °C 1018.2 hPa West 9.7 km/h 20.9 km/h 55 % 0 mm
18:18 3.5 °C -4.7 °C 1018.2 hPa WNW 4.8 km/h 12.9 km/h 55 % 0 mm
18:23 3.4 °C -5 °C 1018.2 hPa WNW 9.7 km/h 14.5 km/h 54 % 0 mm
18:28 3.4 °C -4.8 °C 1018.2 hPa West 4.8 km/h 19.3 km/h 55 % 0 mm
18:33 3.4 °C -4.6 °C 1018.5 hPa WSW 6 km/h 7.4 km/h 56 % 0 mm
18:38 3.4 °C -4.6 °C 1018.5 hPa West 4.8 km/h 19.3 km/h 56 % 0 mm
18:43 3.3 °C -4.7 °C 1018.5 hPa West 4.8 km/h 16.1 km/h 56 % 0 mm
18:48 3.3 °C -4.7 °C 1018.5 hPa West 9.7 km/h 20.9 km/h 56 % 0 mm
18:53 3.2 °C -4.3 °C 1018.8 hPa WNW 4.3 km/h 6.4 km/h 58 % 0 mm
18:58 3.2 °C -4.1 °C 1018.8 hPa NW 5.1 km/h 11.1 km/h 59 % 0 mm
19:04 3.1 °C -4.6 °C 1018.8 hPa WSW 11.6 km/h 27.8 km/h 57 % 0 mm
19:09 3.1 °C -5.1 °C 1018.8 hPa WNW 5.1 km/h 14.8 km/h 55 % 0 mm
19:14 3 °C -5.2 °C 1018.8 hPa WNW 10.1 km/h 22.2 km/h 55 % 0 mm
19:19 2.9 °C -5.2 °C 1019.2 hPa WSW 6.3 km/h 16.7 km/h 55 % 0 mm
19:24 2.9 °C -5.3 °C 1018.8 hPa West 6.9 km/h 16.7 km/h 55 % 0 mm
19:29 2.8 °C -5.3 °C 1019.2 hPa WNW 6.9 km/h 16.1 km/h 55 % 0 mm
19:34 2.8 °C -5.1 °C 1019.2 hPa WNW 4 km/h 9.3 km/h 56 % 0 mm
19:39 2.8 °C -5.6 °C 1019.5 hPa WNW 8.9 km/h 16.7 km/h 54 % 0 mm
19:44 2.7 °C -5.7 °C 1019.5 hPa West 10.1 km/h 18.5 km/h 54 % 0 mm
19:49 2.7 °C -5.7 °C 1019.5 hPa NW 3.1 km/h 13 km/h 54 % 0 mm
19:54 2.7 °C -5.7 °C 1019.5 hPa WNW 9.3 km/h 20.4 km/h 54 % 0 mm
19:59 2.7 °C -5.2 °C 1019.5 hPa WNW 10.8 km/h 18.5 km/h 56 % 0 mm
20:04 2.6 °C -5.3 °C 1019.9 hPa NW 8.2 km/h 13 km/h 56 % 0 mm
20:09 2.6 °C -4.7 °C 1019.9 hPa NNW 8.2 km/h 16.7 km/h 59 % 0 mm
20:14 2.4 °C -4.3 °C 1019.9 hPa NNW 9 km/h 16.7 km/h 61 % 0 mm
20:19 2.3 °C -4.7 °C 1019.9 hPa NNW 5.6 km/h 11.1 km/h 60 % 0 mm
20:24 2.3 °C -4.7 °C 1019.9 hPa NW 9 km/h 18.5 km/h 60 % 0 mm
20:29 2.1 °C -4.8 °C 1019.9 hPa North 8.4 km/h 11.3 km/h 60 % 0 mm
20:34 2 °C -4.7 °C 1020.2 hPa WNW 10.5 km/h 19.3 km/h 61 % 0 mm
20:39 1.9 °C -4.8 °C 1020.2 hPa NNW 9.2 km/h 16.7 km/h 61 % 0 mm
20:44 1.8 °C -4.9 °C 1020.2 hPa NNW 10 km/h 12.9 km/h 61 % 0 mm
20:49 1.8 °C -4.9 °C 1020.5 hPa WNW 4.5 km/h 11.1 km/h 61 % 0 mm
20:54 1.7 °C -5.1 °C 1020.5 hPa NW 10 km/h 10 km/h 61 % 0 mm
20:59 1.6 °C -5.3 °C 1020.5 hPa North 6.8 km/h 14.8 km/h 60 % 0 mm
21:04 1.5 °C -5.4 °C 1020.5 hPa NW 6 km/h 18.5 km/h 60 % 0 mm
21:10 1.4 °C -5.3 °C 1020.5 hPa WNW 7.2 km/h 16.7 km/h 61 % 0 mm
21:15 1.4 °C -5.3 °C 1020.5 hPa North 7.7 km/h 19.3 km/h 61 % 0 mm
21:20 1.3 °C -5.7 °C 1020.9 hPa North 9.2 km/h 18.5 km/h 60 % 0 mm
21:25 1.2 °C -5.7 °C 1020.9 hPa NNW 7.6 km/h 16.1 km/h 60 % 0 mm
21:30 1.1 °C -5.8 °C 1020.9 hPa WNW 6.3 km/h 14.8 km/h 60 % 0 mm
21:35 1.1 °C -5.8 °C 1020.9 hPa North 6.1 km/h 11.1 km/h 60 % 0 mm
21:40 1 °C -5.9 °C 1020.9 hPa NNW 6.3 km/h 11.1 km/h 60 % 0 mm
21:45 0.9 °C -6.2 °C 1020.9 hPa NW 3.9 km/h 9.3 km/h 59 % 0 mm
21:50 0.9 °C -5.9 °C 1020.9 hPa NNW 4.5 km/h 16.7 km/h 60 % 0 mm
21:55 0.8 °C -6.1 °C 1020.9 hPa NW 6 km/h 18.5 km/h 60 % 0 mm
22:00 0.8 °C -6.1 °C 1020.9 hPa NW 6.3 km/h 7.4 km/h 60 % 0 mm
22:05 0.8 °C -6.1 °C 1021.2 hPa NNW 8 km/h 16.7 km/h 60 % 0 mm
22:10 0.8 °C -6.1 °C 1020.9 hPa NNW 7.7 km/h 13 km/h 60 % 0 mm
22:15 0.7 °C -6.2 °C 1020.9 hPa WNW 7.2 km/h 14.8 km/h 60 % 0 mm
22:20 0.7 °C -6.4 °C 1020.9 hPa NW 7.4 km/h 13 km/h 59 % 0 mm
22:25 0.7 °C -6.2 °C 1020.9 hPa North 7.1 km/h 11.1 km/h 60 % 0 mm
22:30 0.6 °C -6.1 °C 1020.9 hPa NW 2.6 km/h 9.7 km/h 61 % 0 mm
22:35 0.6 °C -6.1 °C 1020.9 hPa WNW 7.2 km/h 12.9 km/h 61 % 0 mm
22:40 0.5 °C -6.4 °C 1020.9 hPa NW 3.5 km/h 14.8 km/h 60 % 0 mm
22:45 0.4 °C -6.4 °C 1020.9 hPa North 6.3 km/h 11.1 km/h 60 % 0 mm
22:50 0.4 °C -6.4 °C 1021.2 hPa WNW 7.4 km/h 16.1 km/h 60 % 0 mm
22:55 0.4 °C -6.4 °C 1021.2 hPa West 7.9 km/h 18.5 km/h 60 % 0 mm
23:00 0.4 °C -6.7 °C 1021.2 hPa WNW 7.6 km/h 11.3 km/h 59 % 0 mm
23:06 0.4 °C -6.7 °C 1021.2 hPa WNW 7.9 km/h 14.8 km/h 59 % 0 mm
23:11 0.3 °C -7 °C 1021.2 hPa WNW 9.3 km/h 18.5 km/h 58 % 0 mm
23:16 0.3 °C -7 °C 1021.2 hPa WNW 3.9 km/h 8 km/h 58 % 0 mm
23:21 0.3 °C -7.1 °C 1021.2 hPa WNW 2.6 km/h 7.4 km/h 58 % 0 mm
23:26 0.2 °C -7.1 °C 1021.2 hPa West 7.7 km/h 18.5 km/h 58 % 0 mm
23:31 0.2 °C -7.1 °C 1021.2 hPa West 9 km/h 13 km/h 58 % 0 mm
23:36 0.2 °C -7.1 °C 1021.2 hPa NW 5.3 km/h 13 km/h 58 % 0 mm
23:41 0.1 °C -7.2 °C 1021.2 hPa WNW 4.2 km/h 11.1 km/h 58 % 0 mm
23:46 0.1 °C -7.2 °C 1021.2 hPa WNW 9.2 km/h 17.7 km/h 58 % 0 mm
23:51 0.1 °C -7.2 °C 1021.2 hPa NNW 3.5 km/h 7.4 km/h 58 % 0 mm
23:56 0.1 °C -7 °C 1021.2 hPa NNW 4.2 km/h 12.9 km/h 59 % 0 mm
Crab Meadow Weather
Compliments of Weather Underground - 3 mb

Script developed by  Jim McMurry - jmcmurry@mwt.net Adapted for the template by  Wim van der Kuil - Leuven-Template.eu

Lightning: The average number of deaths from lightning is more than 100 a year with several more deaths from lightning related fires. Lightning injuries account for 3-5 times than those of lightning deaths.